Location: Gombori
(14.9797°N, 2.9419°W)
Time: 09:59:43
(UTC+00:00)

RESURS DK-1 - Pass Details

Date: 29 July 2021
Orbit: 557 x 560 km, 69.9° (Epoch: 22 September)

Event Time Altitude Azimuth Distance (km) Brightness Sun altitude
Rises 19:35:19 0° 206° (SSW) 2,731 5.9 -12.7°
Reaches altitude 10° 19:37:33 10° 211° (SSW) 1,837 5.1 -13.2°
Maximum altitude 19:41:33 53° 288° (WNW) 687 3.2 -14.1°
Drops below altitude 10° 19:45:35 10° 6° (N) 1,841 5.2 -15.0°
Sets 19:47:49 0° 11° (N) 2,736 6.1 -15.5°
